Time,TemperatureF,DewpointF,PressureIn,WindDirection,WindDirectionDegrees,WindSpeedMPH,WindSpeedGustMPH,Humidity,HourlyPrecipIn,Conditions,Clouds,dailyrainin,SoftwareType,DateUTC
2013-12-28 00:04:00,22.8,13.5,30.22,NE,41,0.0,0.0,67,0.00,,,0.00,meteobridge,2013-12-28 08:04:00,
2013-12-28 00:09:00,22.8,13.5,30.22,NE,41,0.0,0.0,67,0.00,,,0.00,meteobridge,2013-12-28 08:09:00,
2013-12-28 00:15:00,22.6,13.6,30.22,NE,41,0.0,0.0,68,0.00,,,0.00,meteobridge,2013-12-28 08:15:00,
2013-12-28 00:20:00,22.5,13.5,30.19,NE,41,0.0,0.0,68,0.00,,,0.00,meteobridge,2013-12-28 08:20:00,
2013-12-28 00:25:00,22.5,13.5,30.19,NE,41,0.0,0.0,68,0.00,,,0.00,meteobridge,2013-12-28 08:25:00,
2013-12-28 00:30:00,22.5,13.5,30.19,NE,41,0.0,0.0,68,0.00,,,0.00,meteobridge,2013-12-28 08:30:00,
2013-12-28 00:35:00,22.3,13.3,30.20,NE,41,0.0,0.0,68,0.00,,,0.00,meteobridge,2013-12-28 08:35:00,
2013-12-28 00:40:00,22.3,13.6,30.20,NE,41,0.0,0.0,69,0.00,,,0.00,meteobridge,2013-12-28 08:40:00,
2013-12-28 00:45:00,21.9,13.3,30.20,NE,41,0.0,0.0,69,0.00,,,0.00,meteobridge,2013-12-28 08:45:00,
2013-12-28 00:51:00,21.9,13.3,30.19,NE,41,0.0,0.0,69,0.00,,,0.00,meteobridge,2013-12-28 08:51:00,
2013-12-28 00:56:00,21.7,13.1,30.19,NE,41,0.0,0.0,69,0.00,,,0.00,meteobridge,2013-12-28 08:56:00,
2013-12-28 01:01:00,21.6,12.9,30.19,NE,41,0.0,0.0,69,0.00,,,0.00,meteobridge,2013-12-28 09:01:00,
2013-12-28 01:06:00,21.6,12.9,30.19,NE,41,0.0,0.0,69,0.00,,,0.00,meteobridge,2013-12-28 09:06:00,
2013-12-28 01:11:00,21.4,12.7,30.19,NE,41,0.0,0.0,69,0.00,,,0.00,meteobridge,2013-12-28 09:11:00,
2013-12-28 01:16:00,21.4,12.7,30.19,NE,41,0.0,0.0,69,0.00,,,0.00,meteobridge,2013-12-28 09:16:00,
2013-12-28 01:22:00,21.0,12.4,30.19,NE,41,0.0,0.0,69,0.00,,,0.00,meteobridge,2013-12-28 09:22:00,
2013-12-28 01:27:00,21.0,12.4,30.19,NE,41,0.0,0.0,69,0.00,,,0.00,meteobridge,2013-12-28 09:27:00,
2013-12-28 01:32:00,21.0,12.4,30.19,NE,41,0.0,0.0,69,0.00,,,0.00,meteobridge,2013-12-28 09:32:00,
2013-12-28 01:37:00,20.8,12.2,30.19,NE,41,0.0,0.0,69,0.00,,,0.00,meteobridge,2013-12-28 09:37:00,
2013-12-28 01:42:00,20.7,12.4,30.19,NE,41,0.0,0.0,70,0.00,,,0.00,meteobridge,2013-12-28 09:42:00,
2013-12-28 01:47:00,20.5,12.0,30.19,NE,41,0.0,0.0,69,0.00,,,0.00,meteobridge,2013-12-28 09:47:00,
2013-12-28 01:52:00,20.5,12.0,30.19,NE,41,0.0,0.0,69,0.00,,,0.00,meteobridge,2013-12-28 09:52:00,
2013-12-28 01:57:00,20.1,11.8,30.19,NE,41,0.0,0.0,70,0.00,,,0.00,meteobridge,2013-12-28 09:57:00,
2013-12-28 02:03:00,19.9,11.7,30.21,NE,41,0.0,0.0,70,0.00,,,0.00,meteobridge,2013-12-28 10:03:00,
2013-12-28 02:08:00,19.9,11.7,30.21,NE,41,0.0,0.0,70,0.00,,,0.00,meteobridge,2013-12-28 10:08:00,
2013-12-28 02:13:00,19.9,11.7,30.21,NE,41,0.0,0.0,70,0.00,,,0.00,meteobridge,2013-12-28 10:13:00,
2013-12-28 02:18:00,19.9,11.7,30.19,NE,41,0.0,0.0,70,0.00,,,0.00,meteobridge,2013-12-28 10:18:00,
2013-12-28 02:24:00,19.6,11.5,30.19,NE,41,0.0,0.0,70,0.00,,,0.00,meteobridge,2013-12-28 10:24:00,
2013-12-28 02:29:00,19.4,11.3,30.19,NE,41,0.0,0.0,70,0.00,,,0.00,meteobridge,2013-12-28 10:29:00,
2013-12-28 02:34:00,19.4,11.3,30.21,NE,41,0.0,0.0,70,0.00,,,0.00,meteobridge,2013-12-28 10:34:00,
2013-12-28 02:39:00,19.2,11.1,30.21,NE,41,0.0,0.0,70,0.00,,,0.00,meteobridge,2013-12-28 10:39:00,
2013-12-28 02:45:00,19.2,11.3,30.21,NE,41,0.0,0.0,71,0.00,,,0.00,meteobridge,2013-12-28 10:45:00,
2013-12-28 02:49:00,19.0,11.1,30.21,NE,41,0.0,0.0,71,0.00,,,0.00,meteobridge,2013-12-28 10:49:00,
2013-12-28 02:55:00,18.9,10.9,30.21,NE,41,0.0,0.0,71,0.00,,,0.00,meteobridge,2013-12-28 10:55:00,
2013-12-28 03:00:00,18.9,10.9,30.21,NE,41,0.0,0.0,71,0.00,,,0.00,meteobridge,2013-12-28 11:00:00,
2013-12-28 03:02:00,18.9,10.9,30.21,NE,42,0.0,0.0,71,0.00,,,0.00,meteobridge,2013-12-28 11:02:00,
2013-12-28 03:07:00,18.9,10.9,30.21,NE,41,0.0,0.0,71,0.00,,,0.00,meteobridge,2013-12-28 11:07:00,
2013-12-28 03:12:00,18.7,10.8,30.21,NE,41,0.0,0.0,71,0.00,,,0.00,meteobridge,2013-12-28 11:12:00,
2013-12-28 03:18:00,18.7,10.8,30.21,NE,41,0.0,0.0,71,0.00,,,0.00,meteobridge,2013-12-28 11:18:00,
2013-12-28 03:23:00,18.3,10.6,30.21,NE,41,0.0,0.0,71,0.00,,,0.00,meteobridge,2013-12-28 11:23:00,
2013-12-28 03:28:00,18.3,10.6,30.21,NE,41,0.0,0.0,71,0.00,,,0.00,meteobridge,2013-12-28 11:28:00,
2013-12-28 03:33:00,18.3,10.6,30.22,NE,41,0.0,0.0,71,0.00,,,0.00,meteobridge,2013-12-28 11:33:00,
2013-12-28 03:38:00,18.3,10.6,30.22,NE,42,0.0,0.0,71,0.00,,,0.00,meteobridge,2013-12-28 11:38:00,
2013-12-28 03:43:00,18.1,10.4,30.22,NE,41,0.0,0.0,71,0.00,,,0.00,meteobridge,2013-12-28 11:43:00,
2013-12-28 03:49:00,18.1,10.4,30.22,NE,41,0.0,0.0,71,0.00,,,0.00,meteobridge,2013-12-28 11:49:00,
2013-12-28 03:54:00,18.0,10.2,30.22,NE,41,0.0,0.0,71,0.00,,,0.00,meteobridge,2013-12-28 11:54:00,
2013-12-28 03:59:00,18.0,10.2,30.22,NE,41,0.0,0.0,71,0.00,,,0.00,meteobridge,2013-12-28 11:59:00,
2013-12-28 04:04:00,17.8,10.0,30.22,NE,41,0.0,0.0,71,0.00,,,0.00,meteobridge,2013-12-28 12:04:00,
2013-12-28 04:09:00,17.8,10.0,30.22,NE,42,0.0,0.0,71,0.00,,,0.00,meteobridge,2013-12-28 12:09:00,
2013-12-28 04:14:00,17.8,10.0,30.22,NE,41,0.0,0.0,71,0.00,,,0.00,meteobridge,2013-12-28 12:14:00,
2013-12-28 04:20:00,17.4,9.7,30.23,NE,41,0.0,0.0,71,0.00,,,0.00,meteobridge,2013-12-28 12:20:00,
2013-12-28 04:25:00,17.4,9.7,30.23,NE,41,0.0,0.0,71,0.00,,,0.00,meteobridge,2013-12-28 12:25:00,
2013-12-28 04:30:00,17.2,9.5,30.23,NE,41,0.0,0.0,71,0.00,,,0.00,meteobridge,2013-12-28 12:30:00,
2013-12-28 04:35:00,17.2,9.5,30.24,NE,42,0.0,0.0,71,0.00,,,0.00,meteobridge,2013-12-28 12:35:00,
2013-12-28 04:40:00,17.2,9.5,30.24,NE,41,0.0,0.0,71,0.00,,,0.00,meteobridge,2013-12-28 12:40:00,
2013-12-28 04:46:00,17.2,9.5,30.24,NE,41,0.0,0.0,71,0.00,,,0.00,meteobridge,2013-12-28 12:46:00,
2013-12-28 04:51:00,17.2,9.5,30.24,NE,41,0.0,0.0,71,0.00,,,0.00,meteobridge,2013-12-28 12:51:00,
2013-12-28 04:56:00,17.1,9.3,30.24,NE,41,0.0,0.0,71,0.00,,,0.00,meteobridge,2013-12-28 12:56:00,
2013-12-28 05:01:00,16.9,9.1,30.24,NE,41,0.0,0.0,71,0.00,,,0.00,meteobridge,2013-12-28 13:01:00,
2013-12-28 05:06:00,16.9,9.1,30.24,NE,41,0.0,0.0,71,0.00,,,0.00,meteobridge,2013-12-28 13:06:00,
2013-12-28 05:11:00,16.7,9.0,30.24,NE,41,0.0,0.0,71,0.00,,,0.00,meteobridge,2013-12-28 13:11:00,
2013-12-28 05:17:00,16.7,9.0,30.25,NE,41,0.0,0.0,71,0.00,,,0.00,meteobridge,2013-12-28 13:17:00,
2013-12-28 05:22:00,16.5,8.8,30.25,NE,41,0.0,0.0,71,0.00,,,0.00,meteobridge,2013-12-28 13:22:00,
2013-12-28 05:27:00,16.5,8.8,30.25,NE,41,0.0,0.0,71,0.00,,,0.00,meteobridge,2013-12-28 13:27:00,
2013-12-28 05:32:00,16.3,8.6,30.25,NE,41,0.0,0.0,71,0.00,,,0.00,meteobridge,2013-12-28 13:32:00,
2013-12-28 05:37:00,16.3,8.6,30.25,NE,41,0.0,0.0,71,0.00,,,0.00,meteobridge,2013-12-28 13:37:00,
2013-12-28 05:42:00,16.2,8.4,30.25,NE,41,0.0,0.0,71,0.00,,,0.00,meteobridge,2013-12-28 13:42:00,
2013-12-28 05:47:00,16.2,8.8,30.28,NE,42,0.0,0.0,72,0.00,,,0.00,meteobridge,2013-12-28 13:47:00,
2013-12-28 05:52:00,16.2,8.4,30.28,NE,41,0.0,0.0,71,0.00,,,0.00,meteobridge,2013-12-28 13:52:00,
2013-12-28 05:57:00,16.2,8.8,30.28,NE,41,0.0,0.0,72,0.00,,,0.00,meteobridge,2013-12-28 13:57:00,
2013-12-28 06:03:00,16.2,8.8,30.28,NE,41,0.0,0.0,72,0.00,,,0.00,meteobridge,2013-12-28 14:03:00,
2013-12-28 06:08:00,16.2,8.8,30.28,NE,41,0.0,0.0,72,0.00,,,0.00,meteobridge,2013-12-28 14:08:00,
2013-12-28 06:13:00,16.2,8.8,30.28,NE,41,0.0,0.0,72,0.00,,,0.00,meteobridge,2013-12-28 14:13:00,
2013-12-28 06:19:00,16.0,8.6,30.30,NE,41,0.0,0.0,72,0.00,,,0.00,meteobridge,2013-12-28 14:19:00,
2013-12-28 06:24:00,16.0,8.6,30.30,NE,41,0.0,0.0,72,0.00,,,0.00,meteobridge,2013-12-28 14:24:00,
2013-12-28 06:29:00,16.0,8.6,30.30,NE,41,0.0,0.0,72,0.00,,,0.00,meteobridge,2013-12-28 14:29:00,
2013-12-28 06:33:00,16.0,8.6,30.31,NE,41,0.0,0.0,72,0.00,,,0.00,meteobridge,2013-12-28 14:33:00,
2013-12-28 06:38:00,15.6,8.2,30.31,NE,41,0.0,0.0,72,0.00,,,0.00,meteobridge,2013-12-28 14:38:00,
2013-12-28 06:44:00,15.6,8.2,30.31,NE,41,0.0,0.0,72,0.00,,,0.00,meteobridge,2013-12-28 14:44:00,
2013-12-28 06:49:00,15.6,8.2,30.32,NE,41,0.0,0.0,72,0.00,,,0.00,meteobridge,2013-12-28 14:49:00,
2013-12-28 06:54:00,15.6,8.2,30.32,NE,41,0.0,0.0,72,0.00,,,0.00,meteobridge,2013-12-28 14:54:00,
2013-12-28 07:00:00,15.4,8.1,30.32,NE,41,0.0,0.0,72,0.00,,,0.00,meteobridge,2013-12-28 15:00:00,
2013-12-28 07:05:00,15.4,8.1,30.33,NE,41,0.0,0.0,72,0.00,,,0.00,meteobridge,2013-12-28 15:05:00,
2013-12-28 07:10:00,15.4,8.1,30.33,NE,41,0.0,0.0,72,0.00,,,0.00,meteobridge,2013-12-28 15:10:00,
2013-12-28 07:15:00,15.3,7.9,30.33,NE,41,0.0,0.0,72,0.00,,,0.00,meteobridge,2013-12-28 15:15:00,
2013-12-28 07:20:00,15.3,7.9,30.36,NE,42,0.0,0.0,72,0.00,,,0.00,meteobridge,2013-12-28 15:20:00,
2013-12-28 07:25:00,15.3,7.9,30.36,NE,41,0.0,0.0,72,0.00,,,0.00,meteobridge,2013-12-28 15:25:00,
2013-12-28 07:30:00,15.3,7.9,30.36,NE,41,0.0,0.0,72,0.00,,,0.00,meteobridge,2013-12-28 15:30:00,
2013-12-28 07:36:00,15.3,7.9,30.36,NE,42,0.0,0.0,72,0.00,,,0.00,meteobridge,2013-12-28 15:36:00,
2013-12-28 07:41:00,15.3,8.2,30.36,NE,41,0.0,0.0,73,0.00,,,0.00,meteobridge,2013-12-28 15:41:00,
2013-12-28 07:46:00,15.1,8.1,30.36,NE,41,0.0,0.0,73,0.00,,,0.00,meteobridge,2013-12-28 15:46:00,
2013-12-28 07:51:00,15.1,8.1,30.36,NE,41,0.0,0.0,73,0.00,,,0.00,meteobridge,2013-12-28 15:51:00,
2013-12-28 07:56:00,15.1,8.1,30.36,NE,41,0.0,0.0,73,0.00,,,0.00,meteobridge,2013-12-28 15:56:00,
2013-12-28 08:01:00,15.1,8.1,30.37,NE,41,0.0,0.0,73,0.00,,,0.00,meteobridge,2013-12-28 16:01:00,
2013-12-28 08:06:00,15.1,8.1,30.37,NE,41,0.0,0.0,73,0.00,,,0.00,meteobridge,2013-12-28 16:06:00,
2013-12-28 08:12:00,15.1,7.7,30.37,NE,41,0.0,0.0,72,0.00,,,0.00,meteobridge,2013-12-28 16:12:00,
2013-12-28 08:17:00,14.9,7.5,30.40,NE,42,0.0,0.0,72,0.00,,,0.00,meteobridge,2013-12-28 16:17:00,
2013-12-28 08:22:00,14.9,7.5,30.40,NE,41,0.0,0.0,72,0.00,,,0.00,meteobridge,2013-12-28 16:22:00,
2013-12-28 08:27:00,14.9,7.9,30.40,NE,41,0.0,0.0,73,0.00,,,0.00,meteobridge,2013-12-28 16:27:00,
2013-12-28 08:33:00,15.1,8.1,30.39,NE,42,0.0,0.0,73,0.00,,,0.00,meteobridge,2013-12-28 16:33:00,
2013-12-28 08:38:00,15.1,8.1,30.39,NE,41,0.0,0.0,73,0.00,,,0.00,meteobridge,2013-12-28 16:38:00,
2013-12-28 08:43:00,15.3,8.2,30.39,NE,41,0.0,0.0,73,0.00,,,0.00,meteobridge,2013-12-28 16:43:00,
2013-12-28 08:48:00,15.3,8.2,30.40,NE,41,0.0,0.0,73,0.00,,,0.00,meteobridge,2013-12-28 16:48:00,
2013-12-28 08:54:00,15.4,8.6,30.40,NE,41,0.0,0.0,74,0.00,,,0.00,meteobridge,2013-12-28 16:54:00,
2013-12-28 08:59:00,15.6,9.1,30.40,NE,41,0.0,0.0,75,0.00,,,0.00,meteobridge,2013-12-28 16:59:00,
2013-12-28 09:04:00,16.0,9.5,30.38,NE,41,0.0,0.0,75,0.00,,,0.00,meteobridge,2013-12-28 17:04:00,
2013-12-28 09:09:00,16.2,9.9,30.38,NE,41,0.0,0.0,76,0.00,,,0.00,meteobridge,2013-12-28 17:09:00,
2013-12-28 09:14:00,16.7,10.4,30.38,NE,41,0.0,0.0,76,0.00,,,0.00,meteobridge,2013-12-28 17:14:00,
2013-12-28 09:20:00,17.2,11.3,30.38,NE,41,0.0,0.0,77,0.00,,,0.00,meteobridge,2013-12-28 17:20:00,
2013-12-28 09:25:00,17.8,11.8,30.38,NE,41,0.0,0.0,77,0.00,,,0.00,meteobridge,2013-12-28 17:25:00,
2013-12-28 09:30:00,18.3,12.6,30.38,NE,41,0.0,0.0,78,0.00,,,0.00,meteobridge,2013-12-28 17:30:00,
2013-12-28 09:35:00,18.9,13.1,30.39,NE,41,0.0,0.9,78,0.00,,,0.00,meteobridge,2013-12-28 17:35:00,
2013-12-28 09:40:00,19.8,14.4,30.39,NE,41,0.0,0.0,79,0.00,,,0.00,meteobridge,2013-12-28 17:40:00,
2013-12-28 09:45:00,20.7,14.9,30.39,North,6,0.9,4.9,78,0.00,,,0.00,meteobridge,2013-12-28 17:45:00,
2013-12-28 09:50:00,21.9,15.8,30.37,NNE,27,2.0,4.0,77,0.00,,,0.00,meteobridge,2013-12-28 17:50:00,
2013-12-28 09:55:00,23.4,16.3,30.37,SW,215,0.0,0.9,74,0.00,,,0.00,meteobridge,2013-12-28 17:55:00,
2013-12-28 10:00:00,24.4,16.3,30.37,NNE,13,0.9,2.0,71,0.00,,,0.00,meteobridge,2013-12-28 18:00:00,
2013-12-28 10:05:00,25.5,15.8,30.35,NNE,13,0.0,2.9,66,0.00,,,0.00,meteobridge,2013-12-28 18:05:00,
2013-12-28 10:10:00,30.0,16.2,30.35,NE,41,0.0,2.0,56,0.00,,,0.00,meteobridge,2013-12-28 18:10:00,
2013-12-28 10:15:00,33.1,16.5,30.35,NE,54,0.0,2.0,50,0.00,,,0.00,meteobridge,2013-12-28 18:15:00,
2013-12-28 10:20:00,34.3,16.7,30.32,NE,51,0.0,2.9,48,0.00,,,0.00,meteobridge,2013-12-28 18:20:00,
2013-12-28 10:26:00,35.1,16.3,30.32,NE,51,0.0,0.0,46,0.00,,,0.00,meteobridge,2013-12-28 18:26:00,
2013-12-28 10:31:00,36.0,16.2,30.29,ENE,68,0.0,2.0,44,0.00,,,0.00,meteobridge,2013-12-28 18:31:00,
2013-12-28 10:36:00,36.1,15.8,30.29,NNE,14,0.0,2.0,43,0.00,,,0.00,meteobridge,2013-12-28 18:36:00,
2013-12-28 10:41:00,36.7,16.3,30.29,NNE,14,0.0,2.9,43,0.00,,,0.00,meteobridge,2013-12-28 18:41:00,
2013-12-28 10:46:00,36.9,16.5,30.28,NNE,14,0.0,0.9,43,0.00,,,0.00,meteobridge,2013-12-28 18:46:00,
2013-12-28 10:51:00,37.6,16.0,30.28,NNE,14,0.0,2.9,41,0.00,,,0.00,meteobridge,2013-12-28 18:51:00,
2013-12-28 10:57:00,37.9,15.3,30.28,North,10,0.0,6.0,39,0.00,,,0.00,meteobridge,2013-12-28 18:57:00,
2013-12-28 11:02:00,38.5,15.6,30.27,North,357,0.0,0.0,39,0.00,,,0.00,meteobridge,2013-12-28 19:02:00,
2013-12-28 11:07:00,38.8,17.8,30.27,ENE,71,0.9,2.9,42,0.00,,,0.00,meteobridge,2013-12-28 19:07:00,
2013-12-28 11:12:00,38.8,17.1,30.27,SE,131,0.0,0.0,41,0.00,,,0.00,meteobridge,2013-12-28 19:12:00,
2013-12-28 11:17:00,39.2,16.3,30.26,SE,131,0.0,0.0,39,0.00,,,0.00,meteobridge,2013-12-28 19:17:00,
2013-12-28 11:23:00,39.4,15.3,30.26,NE,37,0.0,0.9,37,0.00,,,0.00,meteobridge,2013-12-28 19:23:00,
2013-12-28 11:28:00,39.7,16.2,30.26,NE,37,0.0,0.0,38,0.00,,,0.00,meteobridge,2013-12-28 19:28:00,
2013-12-28 11:33:00,39.9,16.9,30.25,East,83,0.0,2.9,39,0.00,,,0.00,meteobridge,2013-12-28 19:33:00,
2013-12-28 11:38:00,40.1,16.0,30.25,NE,38,0.0,0.9,37,0.00,,,0.00,meteobridge,2013-12-28 19:38:00,
2013-12-28 11:43:00,40.3,16.2,30.25,NNE,13,2.9,2.9,37,0.00,,,0.00,meteobridge,2013-12-28 19:43:00,
2013-12-28 11:48:00,40.3,16.2,30.24,NNE,31,0.9,2.0,37,0.00,,,0.00,meteobridge,2013-12-28 19:48:00,
2013-12-28 11:53:00,40.6,16.3,30.24,NNE,32,0.9,6.0,37,0.00,,,0.00,meteobridge,2013-12-28 19:53:00,
2013-12-28 11:58:00,40.8,16.0,30.24,North,0,2.0,4.9,36,0.00,,,0.00,meteobridge,2013-12-28 19:58:00,
2013-12-28 12:03:00,41.2,16.2,30.23,North,353,0.9,4.0,36,0.00,,,0.00,meteobridge,2013-12-28 20:03:00,
2013-12-28 12:08:00,41.9,17.6,30.23,NNE,14,0.9,2.9,37,0.00,,,0.00,meteobridge,2013-12-28 20:08:00,
2013-12-28 12:14:00,42.3,17.2,30.23,NNW,343,0.0,2.9,36,0.00,,,0.00,meteobridge,2013-12-28 20:14:00,
2013-12-28 12:19:00,42.3,16.5,30.23,NNE,25,0.0,4.9,35,0.00,,,0.00,meteobridge,2013-12-28 20:19:00,
2013-12-28 12:24:00,42.6,17.6,30.23,NNE,14,0.9,0.9,36,0.00,,,0.00,meteobridge,2013-12-28 20:24:00,
2013-12-28 12:29:00,42.8,17.1,30.23,NE,35,0.9,0.9,35,0.00,,,0.00,meteobridge,2013-12-28 20:29:00,
2013-12-28 12:34:00,43.2,18.0,30.22,North,0,0.0,2.9,36,0.00,,,0.00,meteobridge,2013-12-28 20:34:00,
2013-12-28 12:39:00,43.5,16.3,30.22,North,1,0.9,6.9,33,0.00,,,0.00,meteobridge,2013-12-28 20:39:00,
2013-12-28 12:44:00,44.1,16.7,30.22,NNE,17,0.9,2.9,33,0.00,,,0.00,meteobridge,2013-12-28 20:44:00,
2013-12-28 12:49:00,44.4,17.1,30.21,North,6,0.0,2.9,33,0.00,,,0.00,meteobridge,2013-12-28 20:49:00,
2013-12-28 12:54:00,44.6,17.2,30.21,NNE,28,0.9,6.0,33,0.00,,,0.00,meteobridge,2013-12-28 20:54:00,
2013-12-28 12:59:00,44.4,16.3,30.21,North,357,0.9,4.9,32,0.00,,,0.00,meteobridge,2013-12-28 20:59:00,
2013-12-28 13:04:00,45.0,16.2,30.20,East,82,0.9,11.0,31,0.00,,,0.00,meteobridge,2013-12-28 21:04:00,
2013-12-28 13:09:00,45.1,16.3,30.20,NNE,23,0.0,8.1,31,0.00,,,0.00,meteobridge,2013-12-28 21:09:00,
2013-12-28 13:14:00,44.8,16.0,30.20,ENE,61,0.9,4.0,31,0.00,,,0.00,meteobridge,2013-12-28 21:14:00,
2013-12-28 13:19:00,44.6,16.5,30.21,NNE,28,2.0,6.0,32,0.00,,,0.00,meteobridge,2013-12-28 21:19:00,
2013-12-28 13:24:00,44.6,16.5,30.21,NNE,25,0.9,6.0,32,0.00,,,0.00,meteobridge,2013-12-28 21:24:00,
2013-12-28 13:29:00,44.6,15.8,30.21,East,97,0.9,6.0,31,0.00,,,0.00,meteobridge,2013-12-28 21:29:00,
2013-12-28 13:35:00,44.6,16.5,30.21,North,1,0.9,2.9,32,0.00,,,0.00,meteobridge,2013-12-28 21:35:00,
2013-12-28 13:40:00,44.6,15.8,30.21,NE,42,2.0,2.0,31,0.00,,,0.00,meteobridge,2013-12-28 21:40:00,
2013-12-28 13:45:00,44.6,15.8,30.21,NNW,344,0.0,2.0,31,0.00,,,0.00,meteobridge,2013-12-28 21:45:00,
2013-12-28 13:50:00,44.6,15.8,30.21,NE,40,0.9,8.1,31,0.00,,,0.00,meteobridge,2013-12-28 21:50:00,
2013-12-28 13:55:00,44.4,16.3,30.21,NNE,20,0.9,8.1,32,0.00,,,0.00,meteobridge,2013-12-28 21:55:00,
2013-12-28 14:00:00,44.4,16.3,30.21,East,80,0.9,2.0,32,0.00,,,0.00,meteobridge,2013-12-28 22:00:00,
2013-12-28 14:05:00,44.6,16.5,30.20,East,92,0.9,6.0,32,0.00,,,0.00,meteobridge,2013-12-28 22:05:00,
2013-12-28 14:10:00,45.0,16.2,30.20,ESE,109,2.9,2.9,31,0.00,,,0.00,meteobridge,2013-12-28 22:10:00,
2013-12-28 14:15:00,44.6,16.5,30.20,NNE,23,0.0,2.0,32,0.00,,,0.00,meteobridge,2013-12-28 22:15:00,
2013-12-28 14:20:00,44.4,16.3,30.20,East,79,0.0,0.9,32,0.00,,,0.00,meteobridge,2013-12-28 22:20:00,
2013-12-28 14:25:00,44.4,15.6,30.20,NNE,21,0.0,2.0,31,0.00,,,0.00,meteobridge,2013-12-28 22:25:00,
2013-12-28 14:30:00,44.2,16.2,30.20,ENE,75,2.0,2.9,32,0.00,,,0.00,meteobridge,2013-12-28 22:30:00,
2013-12-28 14:36:00,44.4,17.1,30.21,East,93,2.0,4.9,33,0.00,,,0.00,meteobridge,2013-12-28 22:36:00,
2013-12-28 14:41:00,44.6,16.5,30.21,East,92,0.0,0.9,32,0.00,,,0.00,meteobridge,2013-12-28 22:41:00,
2013-12-28 14:46:00,44.4,16.3,30.20,East,97,0.0,2.0,32,0.00,,,0.00,meteobridge,2013-12-28 22:46:00,
2013-12-28 14:51:00,44.4,16.3,30.20,NE,48,0.9,0.9,32,0.00,,,0.00,meteobridge,2013-12-28 22:51:00,
2013-12-28 14:56:00,44.6,16.5,30.20,North,8,0.0,0.9,32,0.00,,,0.00,meteobridge,2013-12-28 22:56:00,
2013-12-28 15:01:00,44.6,17.2,30.20,NE,52,0.0,0.9,33,0.00,,,0.00,meteobridge,2013-12-28 23:01:00,
2013-12-28 15:07:00,44.4,17.1,30.20,North,0,0.0,2.9,33,0.00,,,0.00,meteobridge,2013-12-28 23:07:00,
2013-12-28 15:12:00,44.4,16.3,30.20,NNE,32,0.9,6.9,32,0.00,,,0.00,meteobridge,2013-12-28 23:12:00,
2013-12-28 15:17:00,44.6,16.5,30.22,NNE,30,0.0,4.0,32,0.00,,,0.00,meteobridge,2013-12-28 23:17:00,
2013-12-28 15:22:00,44.4,17.1,30.22,North,359,0.9,0.9,33,0.00,,,0.00,meteobridge,2013-12-28 23:22:00,
2013-12-28 15:27:00,44.2,16.9,30.22,NNE,17,2.0,2.9,33,0.00,,,0.00,meteobridge,2013-12-28 23:27:00,
2013-12-28 15:32:00,44.2,16.9,30.22,North,357,0.9,6.0,33,0.00,,,0.00,meteobridge,2013-12-28 23:32:00,
2013-12-28 15:37:00,44.2,16.9,30.22,North,357,0.0,6.0,33,0.00,,,0.00,meteobridge,2013-12-28 23:37:00,
2013-12-28 15:42:00,44.2,17.6,30.22,North,1,6.0,6.9,34,0.00,,,0.00,meteobridge,2013-12-28 23:42:00,
2013-12-28 15:48:00,44.1,18.1,30.22,North,0,0.0,2.0,35,0.00,,,0.00,meteobridge,2013-12-28 23:48:00,
2013-12-28 15:53:00,44.1,18.1,30.22,North,0,0.0,2.0,35,0.00,,,0.00,meteobridge,2013-12-28 23:53:00,
2013-12-28 15:58:00,44.1,17.4,30.22,North,350,0.0,0.9,34,0.00,,,0.00,meteobridge,2013-12-28 23:58:00,
2013-12-28 16:04:00,43.9,18.7,30.22,North,350,0.0,0.9,36,0.00,,,0.00,meteobridge,2013-12-29 00:04:00,
2013-12-28 16:09:00,43.9,18.7,30.22,North,350,0.0,0.0,36,0.00,,,0.00,meteobridge,2013-12-29 00:09:00,
2013-12-28 16:14:00,43.5,19.0,30.22,North,350,0.0,0.0,37,0.00,,,0.00,meteobridge,2013-12-29 00:14:00,
2013-12-28 16:19:00,43.3,18.9,30.24,North,350,0.0,0.0,37,0.00,,,0.00,meteobridge,2013-12-29 00:19:00,
2013-12-28 16:24:00,43.0,19.8,30.24,North,350,0.0,0.0,39,0.00,,,0.00,meteobridge,2013-12-29 00:24:00,
2013-12-28 16:29:00,42.4,19.2,30.24,North,350,0.0,0.0,39,0.00,,,0.00,meteobridge,2013-12-29 00:29:00,
2013-12-28 16:35:00,42.1,19.6,30.25,North,350,0.0,0.0,40,0.00,,,0.00,meteobridge,2013-12-29 00:35:00,
2013-12-28 16:40:00,41.5,19.6,30.25,North,350,0.0,0.0,41,0.00,,,0.00,meteobridge,2013-12-29 00:40:00,
2013-12-28 16:45:00,40.8,19.6,30.25,North,350,0.0,0.0,42,0.00,,,0.00,meteobridge,2013-12-29 00:45:00,
2013-12-28 16:50:00,40.3,19.6,30.26,North,350,0.9,0.9,43,0.00,,,0.00,meteobridge,2013-12-29 00:50:00,
2013-12-28 16:55:00,39.7,19.6,30.26,North,357,0.0,0.9,44,0.00,,,0.00,meteobridge,2013-12-29 00:55:00,
2013-12-28 17:00:00,39.2,19.0,30.26,North,8,0.0,0.9,44,0.00,,,0.00,meteobridge,2013-12-29 01:00:00,
2013-12-28 17:05:00,38.7,18.7,30.27,NNE,13,0.0,2.0,44,0.00,,,0.00,meteobridge,2013-12-29 01:05:00,
2013-12-28 17:10:00,37.9,18.5,30.27,NNE,13,0.0,2.0,45,0.00,,,0.00,meteobridge,2013-12-29 01:10:00,
2013-12-28 17:16:00,37.6,18.1,30.29,NNE,13,0.0,0.9,45,0.00,,,0.00,meteobridge,2013-12-29 01:16:00,
2013-12-28 17:21:00,37.2,18.3,30.29,NNE,13,0.0,0.0,46,0.00,,,0.00,meteobridge,2013-12-29 01:21:00,
2013-12-28 17:26:00,36.9,18.5,30.29,NNE,13,0.0,0.0,47,0.00,,,0.00,meteobridge,2013-12-29 01:26:00,
2013-12-28 17:31:00,36.5,18.7,30.30,NNE,13,0.0,0.9,48,0.00,,,0.00,meteobridge,2013-12-29 01:31:00,
2013-12-28 17:36:00,36.0,18.7,30.30,North,0,0.0,4.9,49,0.00,,,0.00,meteobridge,2013-12-29 01:36:00,
2013-12-28 17:41:00,35.4,18.1,30.30,North,0,0.0,0.0,49,0.00,,,0.00,meteobridge,2013-12-29 01:41:00,
2013-12-28 17:47:00,35.2,18.0,30.32,North,0,0.0,0.0,49,0.00,,,0.00,meteobridge,2013-12-29 01:47:00,
2013-12-28 17:52:00,34.9,18.1,30.32,North,0,0.0,0.0,50,0.00,,,0.00,meteobridge,2013-12-29 01:52:00,
2013-12-28 17:57:00,34.5,18.3,30.32,North,0,0.0,0.0,51,0.00,,,0.00,meteobridge,2013-12-29 01:57:00,
2013-12-28 18:02:00,34.2,18.0,30.32,North,0,0.0,0.0,51,0.00,,,0.00,meteobridge,2013-12-29 02:02:00,
2013-12-28 18:07:00,33.8,18.0,30.32,North,0,0.0,0.0,52,0.00,,,0.00,meteobridge,2013-12-29 02:07:00,
2013-12-28 18:13:00,33.4,17.8,30.32,North,0,0.0,0.0,52,0.00,,,0.00,meteobridge,2013-12-29 02:13:00,
2013-12-28 18:18:00,33.1,17.8,30.34,North,0,0.0,0.0,53,0.00,,,0.00,meteobridge,2013-12-29 02:18:00,
2013-12-28 18:23:00,32.5,17.2,30.34,North,0,0.0,0.0,53,0.00,,,0.00,meteobridge,2013-12-29 02:23:00,
2013-12-28 18:28:00,31.8,17.1,30.34,North,0,0.0,0.0,54,0.00,,,0.00,meteobridge,2013-12-29 02:28:00,
2013-12-28 18:33:00,31.5,17.2,30.36,NNW,347,0.0,0.0,55,0.00,,,0.00,meteobridge,2013-12-29 02:33:00,
2013-12-28 18:38:00,30.9,17.1,30.36,NNW,347,0.0,0.0,56,0.00,,,0.00,meteobridge,2013-12-29 02:38:00,
2013-12-28 18:43:00,30.9,17.4,30.36,NNW,347,0.0,0.0,57,0.00,,,0.00,meteobridge,2013-12-29 02:43:00,
2013-12-28 18:49:00,30.6,17.6,30.37,NNE,16,0.0,0.0,58,0.00,,,0.00,meteobridge,2013-12-29 02:49:00,
2013-12-28 18:54:00,30.4,17.8,30.37,North,356,0.0,2.9,59,0.00,,,0.00,meteobridge,2013-12-29 02:54:00,
2013-12-28 18:59:00,30.4,18.1,30.37,North,356,0.0,0.0,60,0.00,,,0.00,meteobridge,2013-12-29 02:59:00,
2013-12-28 19:04:00,30.0,17.8,30.38,North,356,0.0,0.0,60,0.00,,,0.00,meteobridge,2013-12-29 03:04:00,
2013-12-28 19:09:00,30.0,17.8,30.38,North,356,0.0,0.0,60,0.00,,,0.00,meteobridge,2013-12-29 03:09:00,
2013-12-28 19:15:00,29.8,18.0,30.38,North,356,0.0,0.0,61,0.00,,,0.00,meteobridge,2013-12-29 03:15:00,
2013-12-28 19:20:00,29.7,17.8,30.39,North,356,0.0,0.0,61,0.00,,,0.00,meteobridge,2013-12-29 03:20:00,
2013-12-28 19:25:00,29.5,17.8,30.39,North,356,0.0,0.0,61,0.00,,,0.00,meteobridge,2013-12-29 03:25:00,
2013-12-28 19:30:00,29.5,17.8,30.39,North,356,0.0,0.0,61,0.00,,,0.00,meteobridge,2013-12-29 03:30:00,
2013-12-28 19:35:00,29.5,17.8,30.38,North,353,0.0,2.9,61,0.00,,,0.00,meteobridge,2013-12-29 03:35:00,
2013-12-28 19:40:00,29.1,17.4,30.38,North,353,0.0,0.0,61,0.00,,,0.00,meteobridge,2013-12-29 03:40:00,
2013-12-28 19:46:00,28.8,16.7,30.39,North,353,0.0,0.0,60,0.00,,,0.00,meteobridge,2013-12-29 03:46:00,
2013-12-28 19:51:00,28.8,16.7,30.39,North,353,0.0,0.0,60,0.00,,,0.00,meteobridge,2013-12-29 03:51:00,
2013-12-28 19:56:00,28.2,16.2,30.39,North,353,0.0,0.0,60,0.00,,,0.00,meteobridge,2013-12-29 03:56:00,
2013-12-28 20:01:00,28.0,16.3,30.40,North,353,0.0,0.0,61,0.00,,,0.00,meteobridge,2013-12-29 04:01:00,
2013-12-28 20:07:00,27.9,16.2,30.40,North,353,0.0,0.0,61,0.00,,,0.00,meteobridge,2013-12-29 04:07:00,
2013-12-28 20:12:00,27.5,15.8,30.40,North,353,0.0,0.0,61,0.00,,,0.00,meteobridge,2013-12-29 04:12:00,
2013-12-28 20:17:00,27.3,15.6,30.39,North,353,0.0,0.0,61,0.00,,,0.00,meteobridge,2013-12-29 04:17:00,
2013-12-28 20:22:00,27.1,15.4,30.39,North,353,0.0,0.0,61,0.00,,,0.00,meteobridge,2013-12-29 04:22:00,
2013-12-28 20:27:00,27.0,15.6,30.39,North,353,0.0,0.0,62,0.00,,,0.00,meteobridge,2013-12-29 04:27:00,
2013-12-28 20:32:00,26.8,15.4,30.41,North,353,0.0,0.0,62,0.00,,,0.00,meteobridge,2013-12-29 04:32:00,
2013-12-28 20:37:00,26.6,15.6,30.41,North,353,0.0,0.0,63,0.00,,,0.00,meteobridge,2013-12-29 04:37:00,
2013-12-28 20:42:00,26.6,15.6,30.41,North,353,0.0,0.0,63,0.00,,,0.00,meteobridge,2013-12-29 04:42:00,
2013-12-28 20:47:00,26.4,15.6,30.42,North,353,0.0,0.0,63,0.00,,,0.00,meteobridge,2013-12-29 04:47:00,
2013-12-28 20:52:00,26.2,15.4,30.42,North,353,0.0,0.0,63,0.00,,,0.00,meteobridge,2013-12-29 04:52:00,
2013-12-28 20:58:00,26.1,15.6,30.42,North,353,0.0,0.0,64,0.00,,,0.00,meteobridge,2013-12-29 04:58:00,
2013-12-28 21:01:00,26.1,15.6,30.42,North,353,0.0,0.0,64,0.00,,,0.00,meteobridge,2013-12-29 05:01:00,
2013-12-28 21:02:00,26.1,15.6,30.42,North,353,0.0,0.0,64,0.00,,,0.00,meteobridge,2013-12-29 05:02:00,
2013-12-28 21:03:00,26.1,15.6,30.42,North,353,0.0,0.0,64,0.00,,,0.00,meteobridge,2013-12-29 05:03:00,
2013-12-28 21:04:00,25.9,15.4,30.42,North,353,0.0,0.0,64,0.00,,,0.00,meteobridge,2013-12-29 05:04:00,
2013-12-28 21:10:00,25.7,15.6,30.42,North,353,0.0,0.0,65,0.00,,,0.00,meteobridge,2013-12-29 05:10:00,
2013-12-28 21:15:00,25.7,15.6,30.42,North,353,0.0,0.0,65,0.00,,,0.00,meteobridge,2013-12-29 05:15:00,
2013-12-28 21:20:00,25.5,15.4,30.39,North,353,0.0,0.0,65,0.00,,,0.00,meteobridge,2013-12-29 05:20:00,
2013-12-28 21:25:00,25.5,15.4,30.39,North,353,0.0,0.9,65,0.00,,,0.00,meteobridge,2013-12-29 05:25:00,
2013-12-28 21:30:00,25.3,15.3,30.39,North,353,0.0,0.0,65,0.00,,,0.00,meteobridge,2013-12-29 05:30:00,
2013-12-28 21:35:00,25.3,15.3,30.39,North,353,0.0,0.0,65,0.00,,,0.00,meteobridge,2013-12-29 05:35:00,
2013-12-28 21:41:00,25.2,15.1,30.39,North,353,0.0,0.0,65,0.00,,,0.00,meteobridge,2013-12-29 05:41:00,
2013-12-28 21:46:00,25.0,14.9,30.39,North,353,0.0,0.0,65,0.00,,,0.00,meteobridge,2013-12-29 05:46:00,
2013-12-28 21:51:00,24.8,14.7,30.39,North,353,0.0,0.0,65,0.00,,,0.00,meteobridge,2013-12-29 05:51:00,
2013-12-28 21:56:00,24.8,14.7,30.39,North,353,0.0,0.0,65,0.00,,,0.00,meteobridge,2013-12-29 05:56:00,
2013-12-28 22:01:00,24.6,14.9,30.39,North,353,0.0,0.0,66,0.00,,,0.00,meteobridge,2013-12-29 06:01:00,
2013-12-28 22:06:00,24.6,14.9,30.39,North,4,0.9,4.9,66,0.00,,,0.00,meteobridge,2013-12-29 06:06:00,
2013-12-28 22:11:00,25.0,16.0,30.39,North,0,0.9,2.9,68,0.00,,,0.00,meteobridge,2013-12-29 06:11:00,
2013-12-28 22:16:00,25.3,16.3,30.31,NE,38,0.9,6.0,68,0.00,,,0.00,meteobridge,2013-12-29 06:16:00,
2013-12-28 22:21:00,25.7,16.5,30.31,NNE,32,0.0,2.9,68,0.00,,,0.00,meteobridge,2013-12-29 06:21:00,
2013-12-28 22:26:00,26.1,16.7,30.31,NE,44,0.0,2.0,67,0.00,,,0.00,meteobridge,2013-12-29 06:26:00,
2013-12-28 22:31:00,26.1,16.7,30.30,North,350,0.0,0.0,67,0.00,,,0.00,meteobridge,2013-12-29 06:31:00,
2013-12-28 22:36:00,26.2,16.7,30.30,North,0,0.0,0.9,67,0.00,,,0.00,meteobridge,2013-12-29 06:36:00,
2013-12-28 22:42:00,26.2,16.5,30.30,North,0,0.0,0.9,66,0.00,,,0.00,meteobridge,2013-12-29 06:42:00,
2013-12-28 22:47:00,26.2,16.5,30.30,North,0,0.0,0.0,66,0.00,,,0.00,meteobridge,2013-12-29 06:47:00,
2013-12-28 22:52:00,26.2,16.5,30.30,North,0,0.0,0.0,66,0.00,,,0.00,meteobridge,2013-12-29 06:52:00,
2013-12-28 22:57:00,26.2,16.5,30.30,North,0,0.0,0.0,66,0.00,,,0.00,meteobridge,2013-12-29 06:57:00,
2013-12-28 23:02:00,26.1,16.3,30.32,North,0,0.0,0.0,66,0.00,,,0.00,meteobridge,2013-12-29 07:02:00,
2013-12-28 23:08:00,26.1,16.0,30.32,North,0,0.0,0.0,65,0.00,,,0.00,meteobridge,2013-12-29 07:08:00,
2013-12-28 23:13:00,26.1,16.0,30.32,North,0,0.0,0.0,65,0.00,,,0.00,meteobridge,2013-12-29 07:13:00,
2013-12-28 23:18:00,25.9,15.8,30.30,North,0,0.0,0.0,65,0.00,,,0.00,meteobridge,2013-12-29 07:18:00,
2013-12-28 23:23:00,25.7,15.6,30.30,North,0,0.0,0.0,65,0.00,,,0.00,meteobridge,2013-12-29 07:23:00,
2013-12-28 23:28:00,25.7,15.6,30.30,North,0,0.0,0.0,65,0.00,,,0.00,meteobridge,2013-12-29 07:28:00,
2013-12-28 23:33:00,25.5,15.4,30.30,North,0,0.0,0.0,65,0.00,,,0.00,meteobridge,2013-12-29 07:33:00,
2013-12-28 23:39:00,25.5,15.4,30.30,North,0,0.0,0.0,65,0.00,,,0.00,meteobridge,2013-12-29 07:39:00,
2013-12-28 23:44:00,25.3,15.3,30.30,North,0,0.0,0.0,65,0.00,,,0.00,meteobridge,2013-12-29 07:44:00,
2013-12-28 23:49:00,25.3,15.3,30.30,North,0,0.0,0.0,65,0.00,,,0.00,meteobridge,2013-12-29 07:49:00,
2013-12-28 23:54:00,25.3,15.3,30.30,North,0,0.0,0.0,65,0.00,,,0.00,meteobridge,2013-12-29 07:54:00,
2013-12-28 23:59:00,25.3,15.3,30.30,North,0,0.0,0.0,65,0.00,,,0.00,meteobridge,2013-12-29 07:59:00,